Weather History for Fort Smith, AR

Change the Weather History Date:

Wednesday, April 24, 2013

  Actual Average Record
Temperature  
Mean Temperature 51 °F 64 °F  
Max Temperature 62 °F 76 °F 90 °F (1989)
Min Temperature 40 °F 52 °F 36 °F (1887)
Degree Days  
Heating Degree Days 14 3  
Month to date heating degree days 160 139  
Since 1 July heating degree days 2952 3198  
Cooling Degree Days 0 2  
Month to date cooling degree days 56 38  
Year to date cooling degree days 59 50  
Moisture  
Dew Point 34 °F    
Average Humidity 57    
Maximum Humidity 86    
Minimum Humidity 27    
Precipitation  
Precipitation 0.05 in 0.15 in 2.47 in (1942)
Month to date precipitation 3.02 3.33  
Year to date precipitation 14.87 12.75  
Sea Level Pressure  
Sea Level Pressure 30.24 in    
Wind  
Wind Speed 7 mph (NW)    
Max Wind Speed 17 mph    
Max Gust Speed 25 mph    
Visibility 9 miles    
Events Rain , Thunderstorm    
T = Trace of Precipitation, MM = Missing Value Source: NWS Daily Summary

Daily Weather History Graph

Daily Weather History Graph

Search for Another Location

Airport:

Trip Planner

Search our weather history database for the weather conditions in past years. The results will help you decide how hot, cold, wet, or windy it might be!

Date:

Astronomy

Apr. 24, 2013 Rise Set
Actual Time 6:33 AM CDT 7:57 PM CDT
Civil Twilight 6:06 AM CDT 8:24 PM CDT
Nautical Twilight 5:34 AM CDT 8:56 PM CDT
Astronomical Twilight 5:01 AM CDT 9:30 PM CDT
Moon 7:03 PM CDT (4/24) 5:35 AM CDT (4/24)
Length of Visible Light 14h 17m
Length of Day
13h 24m
Waxing Gibbous, 98% of the Moon is Illuminated
Apr 24
Waxing Gibbous
Apr 25
Full
May 2
Last Quarter
May 9
New
May 17
First Quarter

Hourly Weather History & Observations

Time (CDT) Temp. Windchill Dew Point Humidity Pressure Visibility Wind Dir Wind Speed Gust Speed Precip Events Conditions
12:02 AM 41.0 °F 34.7 °F 37.4 °F 87% 30.14 in 3.0 mi NW 10.4 mph - 0.05 in Rain , Thunderstorm Heavy Thunderstorms and Rain
12:39 AM 41.0 °F 35.2 °F 37.4 °F 87% 30.15 in 4.0 mi NW 9.2 mph - 0.18 in Rain Rain
12:53 AM 41.0 °F 33.9 °F 37.9 °F 89% 30.14 in 5.0 mi NW 12.7 mph - 0.21 in Rain Light Rain
1:50 AM 41.0 °F 35.8 °F 37.4 °F 87% 30.15 in 10.0 mi NNW 8.1 mph - 0.04 in   Overcast
1:53 AM 41.0 °F 35.2 °F 37.0 °F 86% 30.14 in 10.0 mi NNW 9.2 mph - 0.04 in   Overcast
2:53 AM 41.0 °F 34.3 °F 37.0 °F 86% 30.17 in 10.0 mi NW 11.5 mph - 0.01 in Rain Light Rain
3:38 AM 41.0 °F 35.8 °F 37.4 °F 87% 30.17 in 10.0 mi WNW 8.1 mph - 0.01 in   Overcast
3:53 AM 41.0 °F 34.7 °F 37.0 °F 86% 30.18 in 10.0 mi NW 10.4 mph - 0.01 in   Overcast
4:53 AM 41.0 °F 34.7 °F 35.6 °F 81% 30.21 in 10.0 mi NW 10.4 mph 21.9 mph N/A   Overcast
5:22 AM 41.0 °F 34.7 °F 35.6 °F 81% 30.22 in 10.0 mi NW 10.4 mph - N/A   Overcast
5:53 AM 41.0 °F 35.8 °F 35.1 °F 79% 30.23 in 10.0 mi NW 8.1 mph - N/A   Overcast
6:53 AM 41.0 °F 35.8 °F 35.1 °F 79% 30.25 in 10.0 mi NW 8.1 mph - N/A   Overcast
7:53 AM 42.1 °F 36.6 °F 34.0 °F 73% 30.27 in 10.0 mi NNW 9.2 mph - N/A   Scattered Clouds
8:45 AM 42.8 °F 36.6 °F 35.6 °F 76% 30.27 in 10.0 mi NW 11.5 mph - N/A   Mostly Cloudy
8:53 AM 42.1 °F 35.2 °F 34.0 °F 73% 30.28 in 10.0 mi NW 12.7 mph - N/A   Mostly Cloudy
9:48 AM 44.6 °F 38.8 °F 33.8 °F 66% 30.28 in 10.0 mi NNW 11.5 mph - N/A   Scattered Clouds
9:53 AM 44.1 °F 39.0 °F 32.0 °F 63% 30.28 in 10.0 mi North 9.2 mph 17.3 mph N/A   Partly Cloudy
10:35 AM 46.4 °F 42.9 °F 33.8 °F 62% 30.29 in 10.0 mi WNW 6.9 mph - N/A   Mostly Cloudy
10:53 AM 46.9 °F - 33.1 °F 59% 30.30 in 10.0 mi Variable 6.9 mph - N/A   Mostly Cloudy
11:53 AM 50.0 °F - 33.1 °F 52% 30.31 in 10.0 mi WNW 9.2 mph - N/A   Scattered Clouds
12:53 PM 52.0 °F - 30.9 °F 45% 30.29 in 10.0 mi NNE 4.6 mph - N/A   Clear
1:53 PM 55.0 °F - 30.9 °F 40% 30.28 in 10.0 mi Variable 4.6 mph - N/A   Clear
2:53 PM 57.0 °F - 30.0 °F 36% 30.27 in 10.0 mi NW 8.1 mph - N/A   Clear
3:53 PM 59.0 °F - 28.0 °F 31% 30.24 in 10.0 mi WNW 6.9 mph - N/A   Clear
4:53 PM 61.0 °F - 27.0 °F 27% 30.23 in 10.0 mi NNW 8.1 mph - N/A   Clear
5:53 PM 61.0 °F - 26.1 °F 26% 30.23 in 10.0 mi Variable 3.5 mph - N/A   Clear
6:53 PM 60.1 °F - 27.0 °F 28% 30.24 in 10.0 mi North 9.2 mph - N/A   Clear
7:53 PM 55.0 °F - 35.1 °F 47% 30.25 in 10.0 mi Variable 3.5 mph - N/A   Clear
8:53 PM 54.0 °F - 34.0 °F 47% 30.28 in 10.0 mi West 5.8 mph - N/A   Clear
9:53 PM 51.1 °F - 36.0 °F 56% 30.30 in 10.0 mi West 3.5 mph - N/A   Clear
10:53 PM 46.9 °F - 37.9 °F 71% 30.30 in 10.0 mi Calm Calm - N/A   Clear
11:53 PM 45.0 °F 41.2 °F 37.9 °F 76% 30.33 in 10.0 mi West 6.9 mph - N/A   Clear